{"data":{"norad_id":61691,"epoch":"2026-05-24T21:47:27.432096Z","epoch_age_seconds":79444,"freshness":"FRESH","line1":"1 61691U 24195E   26144.90795639  .00000370  00000+0  79116-5 0  9997","line2":"2 61691  53.1583  10.5973 0000717  62.3916 297.7174 15.69700956 91002","mean_motion":15.69700956,"eccentricity":7.17e-5,"inclination_deg":53.1583,"raan_deg":10.5973,"arg_perigee_deg":62.3916,"mean_anomaly_deg":297.7174,"bstar":7.9116e-6,"rev_number":9100,"period_min":91.73721876742,"perigee_km":359.26952432364,"apogee_km":360.23573769673,"semimajor_km":6737.8896310102,"source":"CELESTRAK","updated_at":"2026-05-25T13:38:19.440084Z"}}